| time (UTC) | temp C | wind direction | speed KPH | gust KPH | rain 1hr cm | rain 24hr cm | rain mn cm | humidity % | barometer mb |
| 20260904040205 | 16 | 55 | 0.0 | 3.2 | 0.00 | 0.28 | 0.00 | 95 | 1009.4 |
| 20260904034205 | 16 | 55 | 0.0 | 3.2 | 0.00 | 0.28 | 0.28 | 94 | 1009.4 |
| 20260904032705 | 16 | 55 | 1.6 | 3.2 | 0.00 | 0.33 | 0.28 | 94 | 1009.4 |
| 20260904032205 | 16 | 55 | 1.6 | 1.6 | 0.00 | 0.33 | 0.28 | 94 | 1009.3 |
| 20260904030705 | 16 | 55 | 0.0 | 0.0 | 0.00 | 0.38 | 0.28 | 94 | 1009.3 |
| 20260904030205 | 17 | 55 | 0.0 | 3.2 | 0.00 | 0.41 | 0.28 | 94 | 1009.3 |
| 20260904024705 | 17 | 55 | 0.0 | 1.6 | 0.00 | 0.43 | 0.28 | 94 | 1009.3 |
| 20260904024205 | 17 | 55 | 0.0 | 1.6 | 0.00 | 0.46 | 0.28 | 93 | 1009.4 |
| 20260904022705 | 17 | 55 | 1.6 | 1.6 | 0.00 | 0.48 | 0.28 | 93 | 1009.5 |
| 20260904020705 | 17 | 55 | 1.6 | 3.2 | 0.00 | 0.51 | 0.28 | 93 | 1009.5 |
| 20260904014205 | 18 | 28 | 1.6 | 8.0 | 0.00 | 0.56 | 0.28 | 94 | 1009.6 |
| 20260904012705 | 18 | 47 | 3.2 | 4.8 | 0.00 | 0.58 | 0.28 | 94 | 1009.5 |
| 20260904012205 | 18 | 30 | 3.2 | 4.8 | 0.00 | 0.58 | 0.28 | 95 | 1009.4 |
| 20260904010705 | 18 | 47 | 0.0 | 0.0 | 0.00 | 0.58 | 0.28 | 94 | 1008.8 |
| 20260904010205 | 18 | 47 | 0.0 | 3.2 | 0.00 | 0.58 | 0.28 | 94 | 1008.7 |
| 20260904004705 | 18 | 47 | 1.6 | 1.6 | 0.03 | 0.58 | 0.28 | 94 | 1008.7 |
| 20260904004207 | 18 | 47 | 0.0 | 4.8 | 0.03 | 0.58 | 0.28 | 94 | 1008.7 |
| 20260904002705 | 18 | 45 | 3.2 | 4.8 | 0.03 | 0.61 | 0.28 | 94 | 1008.6 |
| 20260904002205 | 18 | 37 | 4.8 | 4.8 | 0.03 | 0.61 | 0.28 | 94 | 1008.7 |
| 20260904000705 | 18 | 319 | 0.0 | 0.0 | 0.03 | 0.61 | 0.28 | 93 | 1008.3 |
| 20260904000205 | 18 | 319 | 0.0 | 1.6 | 0.03 | 0.61 | 0.28 | 93 | 1008.3 |
| 20260903234705 | 19 | 319 | 0.0 | 1.6 | 0.00 | 0.58 | 0.25 | 92 | 1008.1 |
| 20260903234205 | 19 | 319 | 0.0 | 1.6 | 0.00 | 0.58 | 0.25 | 92 | 1008.2 |
| 20260903232705 | 20 | 319 | 0.0 | 0.0 | 0.00 | 0.58 | 0.25 | 91 | 1008.0 |
| 20260903232205 | 20 | 319 | 0.0 | 1.6 | 0.03 | 0.58 | 0.25 | 91 | 1008.0 |
| 20260903230704 | 20 | 319 | 1.6 | 1.6 | 0.05 | 0.58 | 0.25 | 90 | 1008.2 |
| 20260903230204 | 20 | 319 | 0.0 | 1.6 | 0.05 | 0.58 | 0.25 | 90 | 1008.3 |
| 20260903224204 | 20 | 319 | 0.0 | 4.8 | 0.05 | 0.58 | 0.25 | 88 | 1008.5 |
| 20260903222205 | 21 | 339 | 3.2 | 20.9 | 0.05 | 0.56 | 0.23 | 85 | 1008.6 |
| 20260903220705 | 22 | 191 | 1.6 | 4.8 | 0.00 | 0.51 | 0.20 | 81 | 1008.2 |
| 20260903220204 | 23 | 170 | 3.2 | 4.8 | 0.00 | 0.51 | 0.20 | 82 | 1008.2 |
| 20260903214705 | 23 | 288 | 1.6 | 4.8 | 0.00 | 0.51 | 0.20 | 82 | 1008.0 |
| 20260903212705 | 23 | 258 | 3.2 | 4.8 | 0.00 | 0.51 | 0.20 | 76 | 1008.0 |
| 20260903212204 | 23 | 255 | 3.2 | 4.8 | 0.00 | 0.51 | 0.20 | 75 | 1008.0 |
| 20260903210205 | 24 | 250 | 1.6 | 8.0 | 0.00 | 0.51 | 0.20 | 75 | 1007.9 |
| 20260903204705 | 25 | 233 | 3.2 | 8.0 | 0.00 | 0.51 | 0.20 | 70 | 1008.0 |
| 20260903204205 | 25 | 170 | 1.6 | 11.3 | 0.00 | 0.51 | 0.20 | 70 | 1008.2 |
| 20260903200705 | 25 | 267 | 4.8 | 11.3 | 0.00 | 0.51 | 0.20 | 69 | 1008.2 |
| 20260903194204 | 25 | 271 | 4.8 | 11.3 | 0.00 | 0.51 | 0.20 | 71 | 1008.3 |
| 20260903192705 | 25 | 252 | 8.0 | 16.1 | 0.00 | 0.51 | 0.20 | 70 | 1008.4 |
| 20260903192204 | 25 | 255 | 6.4 | 11.3 | 0.00 | 0.51 | 0.20 | 71 | 1008.4 |
| 20260903190705 | 25 | 255 | 4.8 | 12.9 | 0.00 | 0.51 | 0.20 | 70 | 1008.4 |
| 20260903190205 | 25 | 167 | 1.6 | 11.3 | 0.00 | 0.51 | 0.20 | 73 | 1008.4 |
| 20260903184704 | 25 | 183 | 3.2 | 4.8 | 0.00 | 0.51 | 0.20 | 70 | 1008.6 |
| 20260903184205 | 26 | 195 | 3.2 | 11.3 | 0.00 | 0.51 | 0.20 | 70 | 1008.6 |
| 20260903182704 | 25 | 174 | 3.2 | 9.7 | 0.00 | 0.51 | 0.20 | 69 | 1008.6 |
| 20260903182206 | 25 | 244 | 1.6 | 9.7 | 0.00 | 0.51 | 0.20 | 70 | 1008.5 |
| 20260903180704 | 25 | 232 | 1.6 | 4.8 | 0.00 | 0.51 | 0.20 | 72 | 1008.8 |
| 20260903180205 | 25 | 238 | 1.6 | 9.7 | 0.00 | 0.51 | 0.20 | 72 | 1008.8 |
| 20260903174704 | 25 | 258 | 3.2 | 8.0 | 0.00 | 0.51 | 0.20 | 73 | 1008.9 |
| 20260903172705 | 23 | 211 | 1.6 | 4.8 | 0.00 | 0.51 | 0.20 | 76 | 1009.1 |
| 20260903172205 | 23 | 225 | 3.2 | 9.7 | 0.00 | 0.51 | 0.20 | 76 | 1009.2 |
| 20260903170704 | 24 | 155 | 6.4 | 14.5 | 0.00 | 0.51 | 0.20 | 76 | 1009.2 |
| 20260903170204 | 24 | 156 | 4.8 | 9.7 | 0.00 | 0.51 | 0.20 | 76 | 1009.2 |
| 20260903164705 | 23 | 164 | 4.8 | 12.9 | 0.00 | 0.51 | 0.20 | 78 | 1009.4 |
| 20260903164204 | 23 | 154 | 3.2 | 14.5 | 0.00 | 0.51 | 0.20 | 80 | 1009.4 |
| 20260903162705 | 22 | 167 | 6.4 | 11.3 | 0.00 | 0.51 | 0.20 | 83 | 1009.6 |
| 20260903162204 | 22 | 164 | 8.0 | 16.1 | 0.00 | 0.51 | 0.20 | 84 | 1009.7 |
| 20260903160705 | 22 | 263 | 3.2 | 9.7 | 0.00 | 0.51 | 0.20 | 84 | 1009.8 |
| 20260903160204 | 22 | 167 | 3.2 | 12.9 | 0.00 | 0.51 | 0.20 | 84 | 1009.8 |
| 20260903154704 | 21 | 170 | 6.4 | 14.5 | 0.00 | 0.51 | 0.20 | 87 | 1010.0 |
| 20260903152204 | 20 | 171 | 3.2 | 11.3 | 0.00 | 0.51 | 0.20 | 90 | 1010.2 |
| 20260903150704 | 20 | 188 | 3.2 | 9.7 | 0.00 | 0.51 | 0.20 | 90 | 1010.3 |
| 20260903150204 | 20 | 171 | 3.2 | 12.9 | 0.00 | 0.51 | 0.20 | 90 | 1010.3 |
| 20260903144704 | 20 | 164 | 3.2 | 12.9 | 0.00 | 0.51 | 0.20 | 90 | 1010.3 |
| 20260903144204 | 20 | 197 | 3.2 | 11.3 | 0.00 | 0.51 | 0.20 | 91 | 1010.2 |
| 20260903142704 | 19 | 187 | 3.2 | 8.0 | 0.00 | 0.51 | 0.20 | 91 | 1010.3 |
| 20260903142204 | 19 | 215 | 4.8 | 12.9 | 0.00 | 0.51 | 0.20 | 91 | 1010.3 |
| 20260903140704 | 19 | 211 | 4.8 | 16.1 | 0.00 | 0.51 | 0.20 | 92 | 1010.2 |
| 20260903140204 | 19 | 171 | 3.2 | 14.5 | 0.00 | 0.51 | 0.20 | 92 | 1010.3 |
| 20260903134204 | 18 | 210 | 1.6 | 11.3 | 0.00 | 0.51 | 0.20 | 93 | 1010.2 |
| 20260903132704 | 18 | 175 | 3.2 | 11.3 | 0.00 | 0.51 | 0.20 | 93 | 1010.1 |
| 20260903132204 | 18 | 147 | 3.2 | 9.7 | 0.00 | 0.51 | 0.20 | 93 | 1010.1 |
| 20260903124204 | 17 | 167 | 3.2 | 11.3 | 0.00 | 0.51 | 0.20 | 95 | 1010.3 |
| 20260903122704 | 17 | 160 | 4.8 | 11.3 | 0.00 | 0.51 | 0.20 | 95 | 1010.3 |
| 20260903122204 | 17 | 296 | 1.6 | 8.0 | 0.00 | 0.51 | 0.20 | 95 | 1010.3 |
| 20260903120704 | 17 | 185 | 3.2 | 4.8 | 0.00 | 0.51 | 0.20 | 95 | 1010.3 |
| 20260903120204 | 17 | 171 | 1.6 | 12.9 | 0.00 | 0.51 | 0.20 | 95 | 1010.2 |
| 20260903114703 | 17 | 183 | 4.8 | 9.7 | 0.00 | 0.51 | 0.20 | 95 | 1010.3 |
| 20260903114204 | 17 | 177 | 3.2 | 11.3 | 0.00 | 0.51 | 0.20 | 95 | 1010.2 |
| 20260903112704 | 17 | 184 | 4.8 | 9.7 | 0.00 | 0.51 | 0.20 | 95 | 1010.2 |
| 20260903112204 | 17 | 173 | 4.8 | 12.9 | 0.00 | 0.51 | 0.20 | 95 | 1010.2 |
| 20260903110704 | 17 | 152 | 6.4 | 11.3 | 0.03 | 0.51 | 0.20 | 95 | 1010.1 |
| 20260903110204 | 16 | 154 | 4.8 | 11.3 | 0.03 | 0.51 | 0.20 | 95 | 1010.1 |
| 20260903104704 | 16 | 166 | 4.8 | 11.3 | 0.03 | 0.51 | 0.20 | 95 | 1009.9 |
| 20260903104204 | 16 | 160 | 3.2 | 11.3 | 0.03 | 0.51 | 0.20 | 95 | 1010.0 |
| 20260903102704 | 16 | 169 | 4.8 | 12.9 | 0.03 | 0.51 | 0.20 | 95 | 1009.9 |
| 20260903102204 | 16 | 166 | 4.8 | 11.3 | 0.03 | 0.51 | 0.20 | 95 | 1009.9 |
| 20260903100704 | 16 | 149 | 3.2 | 8.0 | 0.00 | 0.51 | 0.18 | 95 | 1009.8 |
| 20260903100203 | 16 | 172 | 4.8 | 8.0 | 0.00 | 0.51 | 0.18 | 95 | 1009.7 |
| 20260903094703 | 16 | 154 | 3.2 | 8.0 | 0.00 | 0.51 | 0.18 | 95 | 1009.6 |
| 20260903094204 | 16 | 148 | 3.2 | 8.0 | 0.00 | 0.51 | 0.18 | 95 | 1009.6 |
| 20260903092703 | 16 | 167 | 3.2 | 12.9 | 0.00 | 0.51 | 0.18 | 95 | 1009.4 |
| 20260903090704 | 16 | 132 | 3.2 | 8.0 | 0.05 | 0.51 | 0.18 | 95 | 1009.6 |
| 20260903090204 | 16 | 132 | 4.8 | 9.7 | 0.05 | 0.51 | 0.18 | 95 | 1009.6 |
| 20260903084704 | 16 | 155 | 3.2 | 4.8 | 0.05 | 0.51 | 0.18 | 95 | 1009.8 |
| 20260903082704 | 16 | 104 | 3.2 | 8.0 | 0.05 | 0.51 | 0.18 | 95 | 1009.9 |
| 20260903082204 | 16 | 163 | 3.2 | 9.7 | 0.05 | 0.48 | 0.15 | 94 | 1009.9 |
| 20260903080704 | 16 | 122 | 3.2 | 8.0 | 0.00 | 0.43 | 0.13 | 94 | 1009.7 |
| 20260903080204 | 16 | 159 | 3.2 | 9.7 | 0.00 | 0.43 | 0.13 | 94 | 1009.8 |
| 20260903074205 | 16 | 167 | 3.2 | 12.9 | 0.00 | 0.43 | 0.13 | 94 | 1009.8 |
| 20260903072205 | 16 | 165 | 8.0 | 14.5 | 0.00 | 0.43 | 0.13 | 94 | 1009.9 |
| 20260903070705 | 16 | 113 | 3.2 | 11.3 | 0.00 | 0.43 | 0.13 | 94 | 1009.9 |
| 20260903070205 | 16 | 146 | 4.8 | 11.3 | 0.00 | 0.43 | 0.13 | 94 | 1009.9 |
| 20260903064705 | 16 | 101 | 4.8 | 11.3 | 0.00 | 0.43 | 0.13 | 94 | 1010.0 |
| 20260903064205 | 16 | 169 | 6.4 | 14.5 | 0.00 | 0.43 | 0.13 | 94 | 1009.9 |
| 20260903062705 | 16 | 126 | 8.0 | 12.9 | 0.00 | 0.43 | 0.13 | 94 | 1009.7 |
| 20260903062205 | 16 | 142 | 4.8 | 16.1 | 0.00 | 0.43 | 0.13 | 94 | 1009.7 |
| 20260903060706 | 16 | 154 | 6.4 | 16.1 | 0.03 | 0.43 | 0.13 | 94 | 1009.7 |
| 20260903054705 | 16 | 122 | 8.0 | 14.5 | 0.08 | 0.43 | 0.13 | 93 | 1010.1 |
| 20260903054205 | 16 | 115 | 8.0 | 16.1 | 0.08 | 0.43 | 0.13 | 93 | 1010.2 |
| 20260903052705 | 16 | 122 | 6.4 | 14.5 | 0.10 | 0.43 | 0.13 | 93 | 1010.3 |
| 20260903052205 | 16 | 103 | 8.0 | 19.3 | 0.10 | 0.43 | 0.13 | 94 | 1010.4 |
| 20260903050705 | 16 | 108 | 8.0 | 20.9 | 0.08 | 0.43 | 0.10 | 93 | 1010.7 |
| 20260903050205 | 16 | 108 | 8.0 | 19.3 | 0.08 | 0.41 | 0.08 | 93 | 1010.9 |
| 20260903044705 | 16 | 113 | 4.8 | 12.9 | 0.05 | 0.36 | 0.05 | 93 | 1011.3 |
| 20260903044205 | 16 | 133 | 8.0 | 16.1 | 0.05 | 0.36 | 0.05 | 93 | 1011.3 |
| 20260903042705 | 16 | 122 | 8.0 | 16.1 | 0.05 | 0.33 | 0.03 | 93 | 1011.4 |
| 20260903042205 | 16 | 168 | 4.8 | 12.9 | 0.08 | 0.33 | 0.03 | 93 | 1011.5 |
| 20260903040705 | 16 | 161 | 8.0 | 12.9 | 0.13 | 0.33 | 0.03 | 93 | 1011.6 |